This is the latest recevied weather packets stored in our database for station/object XE2MEM-21. If no packets are shown the sender has not sent any weather packets the latest 10 day(s).
| Time | Temp. | Humidity | Pressure | Rain* | Wind** | Luminosity | Snow |
|---|---|---|---|---|---|---|---|
| 1777752753 | 23.33° C | 84% | 1016.6 hPa | - | - | - | - |
| 1777751853 | 23.33° C | 84% | 1016.7 hPa | - | - | - | - |
| 1777750953 | 23.33° C | 85% | 1016.9 hPa | - | - | - | - |
| 1777750052 | 22.22° C | 88% | 1016.8 hPa | - | - | - | - |
| 1777749152 | 21.67° C | 89% | 1017.2 hPa | - | - | - | - |
| 1777748252 | 21.67° C | 93% | 1017.1 hPa | - | - | - | - |
| 1777747352 | 21.11° C | 95% | 1017.2 hPa | - | - | - | - |
| 1777746452 | 20.56° C | 99% | 1017.4 hPa | - | - | - | - |
| 1777745552 | 20.56° C | 100% | 1017.5 hPa | - | - | - | - |
| 1777744652 | 20° C | 100% | 1017.6 hPa | - | - | - | - |
| 1777743752 | 19.44° C | 100% | 1017.8 hPa | - | - | - | - |
| 1777742852 | 20° C | 100% | 1017.8 hPa | - | - | - | - |
| 1777741952 | 19.44° C | 100% | 1018 hPa | - | - | - | - |
| 1777741052 | 18.89° C | 100% | 1018.1 hPa | - | - | - | - |
| 1777740152 | 18.33° C | 100% | 1018.1 hPa | - | - | - | - |
| 1777739251 | 18.89° C | 100% | 1018 hPa | - | - | - | - |
| 1777738351 | 18.89° C | 100% | 1017.8 hPa | - | - | - | - |
| 1777737451 | 18.33° C | 100% | 1017.8 hPa | - | - | - | - |
| 1777736551 | 18.33° C | 100% | 1017.7 hPa | - | - | - | - |
| 1777735651 | 18.33° C | 100% | 1017.5 hPa | - | - | - | - |
| 1777734751 | 18.33° C | 100% | 1017.6 hPa | - | - | - | - |
| 1777733851 | 17.78° C | 100% | 1017.5 hPa | - | - | - | - |
| 1777732951 | 17.22° C | 100% | 1017.1 hPa | - | - | - | - |
| 1777732051 | 17.22° C | 100% | 1017.1 hPa | - | - | - | - |
| 1777731151 | 17.22° C | 100% | 1016.7 hPa | - | - | - | - |
* Rain since midnight (hover to see other rain measurements)
** Current wind speed in m/s (hover to see current wind gust speed)